TimeEDT,TemperatureF,Dew PointF,Humidity,Sea Level PressureIn,VisibilityMPH,Wind Direction,Wind SpeedMPH,Gust SpeedMPH,PrecipitationIn,Events,Conditions,WindDirDegrees,DateUTC
12:54 AM,52.0,46.0,80,29.78,10.0,NW,3.5,-,N/A,,Overcast,320,2007-04-19 04:54:00
1:54 AM,52.0,46.0,80,29.77,10.0,North,6.9,-,0.02,Rain,Light Rain,360,2007-04-19 05:54:00
2:54 AM,50.0,45.0,83,29.75,10.0,NW,3.5,-,0.00,,Partly Cloudy,310,2007-04-19 06:54:00
3:54 AM,46.9,45.0,93,29.76,9.0,Calm,Calm,-,N/A,,Partly Cloudy,0,2007-04-19 07:54:00
4:54 AM,46.9,44.1,90,29.78,5.0,Calm,Calm,-,N/A,,Mostly Cloudy,0,2007-04-19 08:54:00
5:31 AM,44.6,42.8,93,29.81,1.8,NW,3.5,-,N/A,,Clear,320,2007-04-19 09:31:00
5:36 AM,44.6,42.8,93,29.82,0.8,NW,5.8,-,N/A,,Clear,320,2007-04-19 09:36:00
5:54 AM,43.0,42.1,97,29.80,0.2,Calm,Calm,-,N/A,Fog,Fog,0,2007-04-19 09:54:00
6:17 AM,42.8,41.0,93,29.83,0.5,Calm,Calm,-,N/A,Fog,Fog,0,2007-04-19 10:17:00
6:30 AM,42.8,41.0,93,29.83,3.0,Calm,Calm,-,N/A,,Partly Cloudy,0,2007-04-19 10:30:00
6:54 AM,43.0,42.1,97,29.81,3.0,Calm,Calm,-,N/A,,Clear,0,2007-04-19 10:54:00
6:56 AM,42.8,42.8,100,29.83,0.2,Calm,Calm,-,N/A,Fog,Fog,0,2007-04-19 10:56:00
6:58 AM,42.8,42.8,100,29.84,3.0,Calm,Calm,-,N/A,,Haze,0,2007-04-19 10:58:00
7:54 AM,42.8,42.8,100,29.85,3.0,Calm,Calm,-,N/A,,Scattered Clouds,0,2007-04-19 11:54:00
8:54 AM,46.9,45.0,93,29.83,3.0,SSE,3.5,-,N/A,,Scattered Clouds,160,2007-04-19 12:54:00
9:54 AM,54.0,46.0,75,29.82,9.0,SSE,8.1,-,N/A,,Clear,160,2007-04-19 13:54:00
10:54 AM,57.0,46.0,67,29.82,10.0,South,10.4,-,N/A,,Mostly Cloudy,170,2007-04-19 14:54:00
11:54 AM,57.0,45.0,64,29.81,10.0,SE,9.2,-,N/A,,Mostly Cloudy,130,2007-04-19 15:54:00
12:54 PM,57.0,45.0,64,29.80,10.0,SSE,11.5,17.3,0.00,,Mostly Cloudy,150,2007-04-19 16:54:00
1:54 PM,57.0,46.0,67,29.79,7.0,SE,8.1,-,N/A,,Mostly Cloudy,140,2007-04-19 17:54:00
2:54 PM,55.9,46.9,72,29.79,9.0,ESE,5.8,-,0.00,Rain,Light Rain,120,2007-04-19 18:54:00
3:54 PM,53.1,46.0,77,29.81,5.0,North,12.7,21.9,0.00,Rain,Light Rain,360,2007-04-19 19:54:00
4:01 PM,51.8,46.4,82,29.82,2.5,NNE,10.4,-,0.12,Rain,Heavy Rain,30,2007-04-19 20:01:00
4:11 PM,51.8,46.4,82,29.82,4.0,Variable,6.9,-,0.20,Rain,Rain,0,2007-04-19 20:11:00
4:35 PM,51.8,46.4,82,29.84,2.5,North,5.8,-,0.34,Rain,Heavy Rain,10,2007-04-19 20:35:00
4:46 PM,51.8,46.4,82,29.83,3.0,NE,8.1,-,0.39,Rain,Rain,40,2007-04-19 20:46:00
4:54 PM,51.1,46.9,86,29.81,7.0,NNE,6.9,-,0.39,Rain,Light Rain,30,2007-04-19 20:54:00
5:54 PM,53.1,46.9,80,29.83,10.0,NE,4.6,-,0.00,Rain,Light Rain,40,2007-04-19 21:54:00
6:54 PM,52.0,41.0,66,29.87,10.0,North,15.0,-,0.00,Rain,Light Rain,350,2007-04-19 22:54:00
7:54 PM,50.0,36.0,59,29.91,10.0,NNW,16.1,-,0.00,,Mostly Cloudy,330,2007-04-19 23:54:00
8:54 PM,50.0,35.1,57,29.93,10.0,North,5.8,-,N/A,,Scattered Clouds,360,2007-04-20 00:54:00
9:54 PM,46.9,37.0,68,29.95,10.0,NNE,4.6,-,N/A,,Clear,30,2007-04-20 01:54:00
10:54 PM,48.0,36.0,63,29.97,10.0,NNE,3.5,-,N/A,,Mostly Cloudy,30,2007-04-20 02:54:00
11:54 PM,45.0,36.0,71,29.99,10.0,North,3.5,-,N/A,,Scattered Clouds,360,2007-04-20 03:54:00